Regional Weather Roundup
Issued by NWS

Home | Current Version | Previous Version | Text Only | Print | Product List | Glossary Off
Versions: 1 2 3 4 5 6 7 8 9 10 11 12 13 14 15 16 17 18 19 20 21 22 23 24 25 26 27 28 29 30 31 32 33 34 35 36 37 38 39 40 41 42 43 44 45 46 47 48 49 50

578
ASUS43 KOAX 211902
RWRNE

WEATHER ROUNDUP FOR NEBRASKA
NATIONAL WEATHER SERVICE OMAHA NE
200 PM CDT THU MAY 21 2015

NOTES: SATELLITE DATA IS BEING USED TO AUGMENT CLOUD COVER ABOVE
       12000 FEET.
       "FAIR" INDICATES FEW OR NO CLOUDS BELOW 12,000 FEET WITH NO
       SIGNIFICANT WEATHER AND/OR OBSTRUCTIONS TO VISIBILITY.

  * THESE STATIONS DO NOT REPORT WEATHER SUCH AS RAIN...SNOW OR FOG.

NEZ001>004-019>022-054>056-212000-
NEBRASKA PANHANDLE

CITY           SKY/WX    TMP DP  RH WIND       PRES   REMARKS
SCOTTSBLUFF    CLOUDY    54  40  59 SE12      30.20F
ALLIANCE       CLOUDY    55  41  59 S13       30.22F
CHADRON        CLOUDY    56  40  55 E8        30.20F
KIMBALL          N/A    N/A N/A N/A MISG        N/A
SIDNEY         CLOUDY    52  41  66 SE12      30.23F
$$

NEZ057>060-069>072-079>082-212000-
SOUTHWEST NEBRASKA

CITY           SKY/WX    TMP DP  RH WIND       PRES   REMARKS
NORTH PLATTE   SUNNY     60  40  47 VRB3      30.26F
IMPERIAL       CLOUDY    55  41  59 SE9       30.26F
LEXINGTON      SUNNY     59  41  51 S3        30.28F
MCCOOK         MOSUNNY   61  39  44 SE8       30.27F
OGALLALA       CLOUDY    56  42  61 S8        30.26F
$$

NEZ005>010-023>029-035>040-094-212000-
NORTH CENTRAL NEBRASKA

CITY           SKY/WX    TMP DP  RH WIND       PRES   REMARKS
VALENTINE      SUNNY     62  29  28 VRB3      30.24F
AINSWORTH      SUNNY     60  34  37 S3        30.25F
BROKEN BOW     SUNNY     61  36  39 VRB3      30.26F
O`NEILL        SUNNY     65  37  35 SW5       30.24F
ORD            SUNNY     62  37  39 S7        30.25F
$$

NEZ041-046>049-061>064-073>077-083>087-212000-
SOUTH CENTRAL NEBRASKA

CITY           SKY/WX    TMP DP  RH WIND       PRES   REMARKS
GRAND ISLAND   SUNNY     63  35  35 NW7       30.28F
AURORA         SUNNY     62  37  40 S3        30.27F
HASTINGS       SUNNY     61  34  36 VRB5      30.27F
HEBRON         SUNNY     63  33  33 CALM      30.28S
HOLDREGE       SUNNY     59  35  40 CALM      30.28F
KEARNEY *      SUNNY     61  37  41 CALM      30.28F
$$

NEZ011>018-030>034-042>045-212000-
NORTHEAST NEBRASKA

CITY           SKY/WX    TMP DP  RH WIND       PRES   REMARKS
NORFOLK        SUNNY     68  37  32 VRB5      30.22F
ALBION         SUNNY     64  34  33 CALM      30.25F
BLAIR          SUNNY     68  37  32 W10G16    30.21F
COLUMBUS *     SUNNY     66  37  34 W7        30.28S
FREMONT        SUNNY     70  37  29 W8        30.22F
TEKAMAH        SUNNY     73  38  27 W7        30.19F
WAYNE          SUNNY     69  37  30 NW7G16    30.21F
$$

NEZ050>053-065>068-078-088>093-212000-
SOUTHEAST NEBRASKA

CITY           SKY/WX    TMP DP  RH WIND       PRES   REMARKS
LINCOLN        SUNNY     69  40  34 VRB5      30.26F
OMAHA EPPLEY   MOSUNNY   70  41  34 W12G21    30.20F
BEATRICE       SUNNY     64  41  42 W8        30.26F
FALLS CITY     SUNNY     67  45  45 NW12      30.24F
NEBRASKA CITY  SUNNY     66  35  31 W9        30.24S
$$

NEZ044-045-051>053-067-212000-
OMAHA AREA

CITY           SKY/WX    TMP DP  RH WIND       PRES   REMARKS
OMAHA EPPLEY   MOSUNNY   70  41  34 W12G21    30.20F
BLAIR          SUNNY     68  37  32 W10G16    30.21F
FREMONT        SUNNY     70  37  29 W8        30.22F
MILLARD        SUNNY     68  43  40 W7        30.22F
OFFUTT AFB     SUNNY     69  43  39 VRB6G17   30.21F
WAHOO            N/A     69  33  25 W9        30.23F HAZE
$$



USA.gov is the U.S. government's official web portal to all federal, state and local government web resources and services.